Location: Newark
(50.8964°N, 1.4048°W)
Time: 07:26:51
(UTC+00:00)

N. Korean satellite - Pass Details

Date: 02 February 2020
Orbit: 456 x 505 km, 97.2° (Epoch: 20 February)

Event Time Altitude Azimuth Distance (km) Brightness Sun altitude
Rises 05:24:00 0° 21° (NNE) 2,566 10.5 -21.7°
Reaches altitude 10° 05:26:14 10° 32° (NNE) 1,689 9.7 -21.4°
Maximum altitude 05:29:31 31° 96° (E) 891 8.5 -20.9°
Drops below altitude 10° 05:32:48 10° 160° (SSE) 1,698 9.6 -20.4°
Sets 05:35:03 0° 171° (S) 2,582 10.4 -20.0°
